Regional Weather Roundup
Issued by NWS

Home | Current Version | Previous Version | Text Only | Print | Product List | Glossary Off
Versions: 1 2 3 4 5 6 7 8 9 10 11 12 13 14 15 16 17 18 19 20 21 22 23 24 25 26 27 28 29 30 31 32 33 34 35 36 37 38 39 40 41 42 43 44 45 46 47 48 49 50

000
ASUS43 KLSX 230907
RWRMO

WEATHER SUMMARY FOR MISSOURI
NATIONAL WEATHER SERVICE SPRINGFIELD MO
400 AM CDT TUE MAY 23 2017

NOTE: "FAIR" INDICATES FEW OR NO CLOUDS BELOW 12,000 FEET WITH NO
       SIGNIFICANT WEATHER AND/OR OBSTRUCTIONS TO VISIBILITY.
       CURRENT SKY AND/OR WEATHER CONDITIONS ARE NOT AVAILABLE FOR
       CHILLICOTHE AND FARMINGTON.

MOZ001>031-035>038-043-044-053-054-231000-
...NORTHERN AND WESTERN MISSOURI...

CITY           SKY/WX    TMP DP  RH WIND       PRES   REMARKS
KANSAS CTY INT FOG       55  55 100 SW6       29.87S VSB 1/4
KANSAS C DTWN  CLOUDY    57  56  96 SW6       29.86S
LEE`S SUMMIT   FOG       55  55 100 SW5       29.87S VSB 3/4
ST JOSEPH      CLOUDY    57  57 100 W6        29.87S
CHILLICOTHE      N/A     56  56 100 VRB3      29.86S
KIRKSVILLE     CLOUDY    56  56 100 SW5       29.84F

$$
MOZ066>068-077>081-088>096-101>105-231000-
...SOUTHWEST MISSOURI...

CITY           SKY/WX    TMP DP  RH WIND       PRES   REMARKS
SPRINGFIELD    LGT RAIN  58  55  90 CALM      29.85F
JOPLIN         CLOUDY    62  58  86 NW6       29.87S
BRANSON        CLOUDY    61  52  72 SW6       29.86S

$$
MOZ032>034-039>042-045>050-055>058-069>072-231000-
...CENTRAL MISSOURI...

CITY           SKY/WX    TMP DP  RH WIND       PRES   REMARKS
COLUMBIA       CLOUDY    57  56  96 E5        29.84F
JEFFERSON CITY CLOUDY    61  54  77 CALM      29.84F
ROLLA          CLOUDY    58  53  84 S8        29.83F
SEDALIA        LGT RAIN  57  57 100 E6        29.85F FOG
WHITEMAN AFB   CLOUDY    56  56 100 E3        29.84F
WARRENSBURG    CLOUDY    54  54 100 CALM      29.86S
OSAGE BEACH    LGT RAIN  57  55  93 W3        29.86R

$$
MOZ051-052-059>065-231000-
...EAST CENTRAL MISSOURI...

CITY           SKY/WX    TMP DP  RH WIND       PRES   REMARKS
ST LOUIS INTL  CLOUDY    63  57  81 E8        29.85F
SPIRIT OF STL  CLOUDY    61  59  93 E3        29.84F
ST CHARLES     CLOUDY    60  55  83 E7        29.85F

$$
MOZ072>076-082>087-097>100-106>115-231000-
...SOUTH CENTRAL AND SOUTHEAST MISSOURI...

CITY           SKY/WX    TMP DP  RH WIND       PRES   REMARKS
CAPE GIRARDEAU PTCLDY    58  55  90 CALM      29.85F
FARMINGTON     CLOUDY    57  54  89 CALM      29.86F
POPLAR BLUFF   CLOUDY    59  57  93 CALM      29.84F
WEST PLAINS    CLOUDY    58  53  84 CALM      29.86F

$$




USA.gov is the U.S. government's official web portal to all federal, state and local government web resources and services.